Regional Weather Roundup
Issued by NWS State College, PA

Home | Current Version | Previous Version | Graphics & Text | Print | Product List | Glossary On
Versions: 1 2 3 4 5 6 7 8 9 10 11 12 13 14 15 16 17 18 19 20 21 22 23 24 25 26 27 28 29 30 31 32 33 34 35 36 37 38 39 40 41 42 43 44 45 46 47 48 49 50
000
ASUS41 KCTP 251810
RWRCTP

REGIONAL WEATHER ROUNDUP
NATIONAL WEATHER SERVICE STATE COLLEGE PA
200 PM EDT TUE APR 25 2017

Note: "fair" indicates few or no clouds below 12,000 feet with no
significant weather and/or obstructions to visibility.

* = STATION THAT DOES NOT REPORT PRECIPITATION /E.G. RAIN...SNOW...ETC/
    THUNDER OR FOG.

PAZ002>004-007>009-013>016-020>023-029>032-251900-
WESTERN PENNSYLVANIA

CITY           SKY/WX    TMP DP  RH WIND       PRES   REMARKS
ERIE           PTSUNNY   66  54  65 NW8       29.86F
MEADVILLE      CLOUDY    65  54  67 E8        29.87F
FRANKLIN*      CLOUDY    63  52  67 SE6       29.89F
NEW CASTLE     FAIR      66  54  65 SE8       29.86F
BEAVER COUNTY  CLOUDY    61  52  72 E5        29.86F
BUTLER*        PTSUNNY   64  55  72 E10       29.87F
PITTSBURGH INT CLOUDY    64  54  69 NE7       29.85F
PITTSBURGH     CLOUDY    63  51  65 E7        29.84F
INDIANA*       PTSUNNY   61  52  72 E8G16     29.90S
LATROBE        CLOUDY    59  54  82 NE9       29.86F
WASHINGTON CO* CLOUDY    63  52  67 E7        29.86F
$$

PAZ004>006-010>012-017>019-024>028-033>037-041-042-045-046-049>053-251900-
CENTRAL PENNSYLVANIA

CITY           SKY/WX    TMP DP  RH WIND       PRES   REMARKS
BRADFORD       MOSUNNY   65  52  62 E14       29.91F
DUBOIS         MOSUNNY   64  50  60 E13G23    29.88F
CLEARFIELD     PTSUNNY   60  51  72 E14       29.92S
JOHNSTOWN      CLOUDY    53  49  86 E14G21    29.87F
ALTOONA        LGT RAIN  55  53  93 NE10      29.90F FOG
STATE COLLEGE  CLOUDY    54  52  94 NE7       29.95F FOG
WILLIAMSPORT   CLOUDY    63  52  67 SE13      29.96F
SELINSGROVE    CLOUDY    60  53  77 NE9       29.95F
FT INDIANTOWN  CLOUDY    57  55  94 E13G25    29.92F
CAPITAL CITY   LGT RAIN  56  52  86 E15G22    29.91F FOG
HARRISBURG     LGT RAIN  56  54  93 E12       29.90F FOG
YORK           LGT RAIN  56  55  97 NE13      29.87F FOG
$$

PAZ038>040-043-044-047-048-054-055-060>062-067>071-251900-
EASTERN PENNSYLVANIA

CITY           SKY/WX    TMP DP  RH WIND       PRES   REMARKS
SCRANTON       CLOUDY    56  49  77 NE12      30.01F
MOUNT POCONO   CLOUDY    48  48 100 E16       30.00F FOG
ALLENTOWN      CLOUDY    58  51  78 E16G25    29.96F
QUAKERTOWN*    CLOUDY    55  54  94 E10G17    29.96F
READING        CLOUDY    58  54  86 E10       29.92F
LANCASTER      LGT RAIN  57  56  96 E17G25    29.89F FOG
COATESVILLE    LGT RAIN  55  54  94 NE8G22    29.90F
POTTSTOWN      CLOUDY    56  53  90 NE18G28   29.93F
BLUE BELL      CLOUDY    54  54 100 NE14G22   29.94F
DOYLESTOWN     CLOUDY    54  54 100 VRB6      29.94F
WILLOW GROVE   NOT AVBL
NORTH PHILA    LGT RAIN  57  55  93 E16G25    29.94F FOG
PHILADELPHIA   LGT RAIN  57  54  89 NE17G28   29.90F FOG
$$



USA.gov is the U.S. government's official web portal to all federal, state and local government web resources and services.